Location: Asheville, NC
(35.6000°N, 82.5500°W)
Time: 23:05:34

Hubble Space Telescope - Pass Details

Date: 16 March 2018
Orbit: 537 x 541 km, 28.5° (Epoch: 20 March)

Event Time Altitude Azimuth Distance (km) Brightness Sun altitude
Rises 21:16:50 0° 259° (WSW) 2,676 5.5 -20.6°
Reaches altitude 10° 21:19:22 10° 246° (WSW) 1,784 4.1 -21.1°
Maximum altitude 21:22:48 26° 190° (S) 1,086 2.2 -21.8°
Enters shadow 21:22:54 25° 187° (S) 1,087 2.2 -21.8°
